Location: Haliburton Scout Reserve
(45.0900°N, 78.3200°W)
Time: 02:33:49
(UTC-04:00)

ESTCUBE 1 - Pass Details

Date: 20 May 2022
Orbit: 644 x 659 km, 97.9° (Epoch: 27 June)

Event Time Altitude Azimuth Distance (km) Brightness Sun altitude
Exits shadow 00:05:18 31° 242° (WSW) 1,161 ? -23.3°
Maximum altitude 00:06:06 33° 264° (W) 1,107 ? -23.3°
Drops below altitude 10° 00:10:12 10° 328° (NNW) 2,071 ? -23.5°
Sets 00:12:37 0° 338° (NNW) 2,984 ? -23.6°
